Location: Fort Wayne
(41.1310°N, 85.1290°W)
Time: 20:18:02
(UTC-04:00)

Meteor 2-9 Rocket - Visible Passes

Search period start: 24 September 2016 00:00
Search period end: 04 October 2016 00:00
Orbit: 791 x 896 km, 81.3° (Epoch: 24 September)

Date Brightness Start Highest point End Pass type
(mag) Time Alt. Az. Time Alt. Az. Time Alt. Az.
24 Sep 7.2 04:38:19 10° NNE 04:41:13 14° ENE 04:44:07 10° E visible
24 Sep 4.2 06:19:01 10° NNW 06:24:37 80° W 06:30:21 10° S visible
25 Sep 7.2 04:24:42 10° NE 04:27:00 12° ENE 04:29:19 10° E visible
25 Sep 4.2 06:04:53 10° N 06:10:32 89° W 06:16:18 10° S visible
26 Sep 7.3 04:11:22 10° NE 04:12:47 11° ENE 04:14:12 10° ENE visible
26 Sep 4.3 05:50:47 10° N 05:56:26 81° E 06:02:12 10° SSE visible
27 Sep 4.5 05:36:40 10° N 05:42:19 72° E 05:48:04 10° SSE visible
27 Sep 7.4 20:31:52 10° W 20:33:35 11° WNW 20:35:20 10° NW visible
28 Sep 4.6 05:22:35 10° N 05:28:12 63° ENE 05:33:56 10° SSE visible
28 Sep 5.6 07:06:54 10° NW 07:10:24 17° W 07:13:56 10° WSW visible
28 Sep 7.2 20:16:53 10° W 20:19:22 13° WNW 20:21:52 10° NW visible
29 Sep 4.8 05:08:31 10° N 05:14:05 56° ENE 05:19:46 10° SSE visible
29 Sep 5.5 06:52:28 10° NW 06:56:22 19° W 07:00:19 10° SW visible
29 Sep 7.1 20:02:08 10° W 20:05:09 15° WNW 20:08:12 10° NNW visible
30 Sep 5.1 04:54:27 10° N 04:59:58 49° ENE 05:05:34 10° SSE visible
30 Sep 5.3 06:38:06 10° NW 06:42:21 22° W 06:46:38 10° SW visible
30 Sep 7.0 19:47:30 10° WSW 19:50:57 17° WNW 19:54:25 10° NNW visible
01 Oct 5.3 04:40:25 10° N 04:45:50 44° ENE 04:51:21 10° SSE visible
01 Oct 5.2 06:23:47 10° NW 06:28:19 25° W 06:32:54 10° SW visible
02 Oct 5.5 04:26:23 10° N 04:31:42 39° ENE 04:35:22 19° SE visible
02 Oct 5.0 06:09:30 10° NNW 06:14:16 28° W 06:16:33 22° SW visible
03 Oct 5.7 04:12:23 10° N 04:17:18 34° ENE 04:17:18 34° ENE visible
03 Oct 5.1 05:55:14 10° NNW 05:59:01 29° WNW 05:59:01 29° WNW visible
